Location: La Brionne
(46.1728°N, 1.7849°E)
Time: 09:24:25
(UTC+00:00)

FALCON 9 DEB - Visible Passes

Search period start: 28 October 2021 00:00
Search period end: 07 November 2021 00:00
Orbit: 352 x 364 km, 53.0° (Epoch: 27 October)

Date Brightness Start Highest point End Pass type
(mag) Time Alt. Az. Time Alt. Az. Time Alt. Az.
28 Oct 4.2 17:13:41 10° SSW 17:16:07 24° SE 17:18:36 10° E visible
28 Oct 4.2 18:48:24 10° WSW 18:50:33 37° WNW 18:50:33 37° WNW visible
29 Oct 2.7 17:41:22 10° SW 17:44:19 74° SSE 17:46:17 19° ENE visible
29 Oct 6.0 19:17:17 10° WNW 19:17:59 15° WNW 19:17:59 15° WNW visible
30 Oct 3.6 18:09:48 10° W 18:12:39 43° NNW 18:13:34 31° NNE visible
31 Oct 4.6 18:38:32 10° WNW 18:40:44 24° NNW 18:40:44 24° NNW visible
01 Nov 3.8 17:30:53 10° W 17:33:42 38° NNW 17:36:05 13° NE visible
01 Nov 5.9 19:07:11 10° NW 19:07:46 13° NW 19:07:46 13° NW visible
02 Nov 4.5 17:59:28 10° WNW 18:01:59 24° N 18:03:00 20° NNE visible
03 Nov 4.8 18:27:55 10° NW 18:29:50 20° NNW 18:29:50 20° NNW visible
04 Nov 4.5 17:20:04 10° WNW 17:22:33 23° N 17:24:55 11° NE visible
04 Nov 5.7 18:55:59 10° NW 18:56:35 14° NW 18:56:35 14° NW visible
05 Nov 4.5 17:48:19 10° NW 17:50:40 21° N 17:51:36 18° NNE visible
06 Nov 4.4 18:16:09 10° NW 18:18:13 24° N 18:18:13 24° N visible
